Time,TemperatureF,DewpointF,PressureIn,WindDirection,WindDirectionDegrees,WindSpeedMPH,WindSpeedGustMPH,Humidity,HourlyPrecipIn,Conditions,Clouds,dailyrainin,SoftwareType,DateUTC
2014-01-19 00:00:00,38.8,6.9,29.95,WSW,247,11.9,-999.0,26,-99.99,,,0.00,Acu-Link.com,2014-01-19 07:00:00,
2014-01-19 00:15:00,39.0,7.9,29.95,SW,225,14.5,-999.0,27,-99.99,,,0.00,Acu-Link.com,2014-01-19 07:15:00,
2014-01-19 00:30:00,39.6,7.6,29.95,West,270,14.5,-999.0,26,-99.99,,,0.00,Acu-Link.com,2014-01-19 07:30:00,
2014-01-19 00:45:00,39.0,7.1,29.93,West,270,14.5,-999.0,26,-99.99,,,0.00,Acu-Link.com,2014-01-19 07:45:00,
2014-01-19 01:00:00,39.4,8.2,29.92,South,180,19.1,-999.0,27,-99.99,,,0.00,Acu-Link.com,2014-01-19 08:00:00,
2014-01-19 01:15:00,40.1,8.0,29.92,West,270,11.4,-999.0,26,-99.99,,,0.00,Acu-Link.com,2014-01-19 08:15:00,
2014-01-19 01:30:00,40.1,8.0,29.90,West,270,21.7,-999.0,26,-99.99,,,0.00,Acu-Link.com,2014-01-19 08:30:00,
2014-01-19 01:46:00,40.8,8.6,29.91,SW,225,17.1,-999.0,26,-99.99,,,0.00,Acu-Link.com,2014-01-19 08:46:00,
2014-01-19 02:01:00,40.8,9.4,29.91,SW,225,16.1,-999.0,27,-99.99,,,0.00,Acu-Link.com,2014-01-19 09:01:00,
2014-01-19 02:16:00,40.6,10.1,29.92,WSW,247,17.6,-999.0,28,-99.99,,,0.00,Acu-Link.com,2014-01-19 09:16:00,
2014-01-19 02:31:00,40.5,10.8,29.92,SW,225,16.1,-999.0,29,-99.99,,,0.00,Acu-Link.com,2014-01-19 09:31:00,
2014-01-19 02:46:00,41.4,10.0,29.91,WSW,247,18.1,-999.0,27,-99.99,,,0.00,Acu-Link.com,2014-01-19 09:46:00,
2014-01-19 03:01:00,41.4,10.0,29.91,SSW,202,16.1,-999.0,27,-99.99,,,0.00,Acu-Link.com,2014-01-19 10:01:00,
2014-01-19 03:16:00,41.7,10.2,29.90,WSW,247,24.8,-999.0,27,-99.99,,,0.00,Acu-Link.com,2014-01-19 10:16:00,
2014-01-19 03:31:00,42.1,9.7,29.89,WSW,247,17.6,-999.0,26,-99.99,,,0.00,Acu-Link.com,2014-01-19 10:31:00,
2014-01-19 03:47:00,41.9,9.5,29.88,West,270,19.1,-999.0,26,-99.99,,,0.00,Acu-Link.com,2014-01-19 10:47:00,
2014-01-19 04:02:00,42.3,10.7,29.88,West,270,14.5,-999.0,27,-99.99,,,0.00,Acu-Link.com,2014-01-19 11:02:00,
2014-01-19 04:17:00,41.9,10.4,29.90,West,270,13.0,-999.0,27,-99.99,,,0.00,Acu-Link.com,2014-01-19 11:17:00,
2014-01-19 04:32:00,41.7,10.2,29.89,West,270,22.2,-999.0,27,-99.99,,,0.00,Acu-Link.com,2014-01-19 11:32:00,
2014-01-19 04:47:00,41.2,9.8,29.92,West,270,5.8,-999.0,27,-99.99,,,0.00,Acu-Link.com,2014-01-19 11:47:00,
2014-01-19 05:17:00,41.0,10.4,29.90,SW,225,14.0,-999.0,28,-99.99,,,0.00,Acu-Link.com,2014-01-19 12:17:00,
2014-01-19 05:33:00,41.0,11.2,29.90,West,270,13.5,-999.0,29,-99.99,,,0.00,Acu-Link.com,2014-01-19 12:33:00,
2014-01-19 05:48:00,40.5,10.8,29.93,SSW,202,9.9,-999.0,29,-99.99,,,0.00,Acu-Link.com,2014-01-19 12:48:00,
2014-01-19 06:03:00,40.5,11.5,29.92,West,270,10.9,-999.0,30,-99.99,,,0.00,Acu-Link.com,2014-01-19 13:03:00,
2014-01-19 06:18:00,40.6,11.6,29.90,West,270,13.0,-999.0,30,-99.99,,,0.00,Acu-Link.com,2014-01-19 13:18:00,
2014-01-19 06:33:00,40.3,11.4,29.92,SW,225,15.0,-999.0,30,-99.99,,,0.00,Acu-Link.com,2014-01-19 13:33:00,
2014-01-19 06:48:00,40.3,11.4,29.92,SW,225,14.0,-999.0,30,-99.99,,,0.00,Acu-Link.com,2014-01-19 13:48:00,
2014-01-19 07:04:00,40.5,11.5,29.92,West,270,14.5,-999.0,30,-99.99,,,0.00,Acu-Link.com,2014-01-19 14:04:00,
2014-01-19 07:19:00,40.5,11.5,29.92,WNW,292,16.1,-999.0,30,-99.99,,,0.00,Acu-Link.com,2014-01-19 14:19:00,
2014-01-19 07:34:00,40.8,11.8,29.91,West,270,14.0,-999.0,30,-99.99,,,0.00,Acu-Link.com,2014-01-19 14:34:00,
2014-01-19 07:49:00,40.6,11.6,29.91,West,270,15.0,-999.0,30,-99.99,,,0.00,Acu-Link.com,2014-01-19 14:49:00,
2014-01-19 08:04:00,41.4,12.3,29.92,West,270,14.5,-999.0,30,-99.99,,,0.00,Acu-Link.com,2014-01-19 15:04:00,
2014-01-19 08:19:00,41.7,12.6,29.91,WSW,247,14.0,-999.0,30,-99.99,,,0.00,Acu-Link.com,2014-01-19 15:19:00,
2014-01-19 08:34:00,42.3,12.3,29.91,West,270,22.2,-999.0,29,-99.99,,,0.00,Acu-Link.com,2014-01-19 15:34:00,
2014-01-19 08:49:00,42.8,12.8,29.90,WSW,247,19.7,-999.0,29,-99.99,,,0.00,Acu-Link.com,2014-01-19 15:49:00,
2014-01-19 09:05:00,43.9,12.9,29.91,WSW,247,20.2,-999.0,28,-99.99,,,0.00,Acu-Link.com,2014-01-19 16:05:00,
2014-01-19 09:20:00,44.8,12.9,29.91,WSW,247,17.1,-999.0,27,-99.99,,,0.00,Acu-Link.com,2014-01-19 16:20:00,
2014-01-19 09:35:00,45.7,12.8,29.92,SW,225,13.0,-999.0,26,-99.99,,,0.00,Acu-Link.com,2014-01-19 16:35:00,
2014-01-19 09:50:00,46.9,12.0,29.91,West,270,13.5,-999.0,24,-99.99,,,0.00,Acu-Link.com,2014-01-19 16:50:00,
2014-01-19 10:05:00,47.7,12.7,29.92,West,270,14.0,-999.0,24,-99.99,,,0.00,Acu-Link.com,2014-01-19 17:05:00,
2014-01-19 10:20:00,49.6,13.3,29.93,West,270,8.9,-999.0,23,-99.99,,,0.00,Acu-Link.com,2014-01-19 17:20:00,
2014-01-19 10:35:00,48.7,12.6,29.94,West,270,17.1,-999.0,23,-99.99,,,0.00,Acu-Link.com,2014-01-19 17:35:00,
2014-01-19 10:50:00,48.2,13.1,29.93,West,270,15.0,-999.0,24,-99.99,,,0.00,Acu-Link.com,2014-01-19 17:50:00,
2014-01-19 11:05:00,48.9,12.8,29.93,WSW,247,21.7,-999.0,23,-99.99,,,0.00,Acu-Link.com,2014-01-19 18:05:00,
2014-01-19 11:21:00,48.4,13.3,29.92,WSW,247,16.6,-999.0,24,-99.99,,,0.00,Acu-Link.com,2014-01-19 18:21:00,
2014-01-19 11:36:00,48.0,13.9,29.91,West,270,15.5,-999.0,25,-99.99,,,0.00,Acu-Link.com,2014-01-19 18:36:00,
2014-01-19 11:51:00,50.5,14.1,29.92,WSW,247,13.5,-999.0,23,-99.99,,,0.00,Acu-Link.com,2014-01-19 18:51:00,
2014-01-19 12:06:00,51.1,13.6,29.91,WSW,247,15.5,-999.0,22,-99.99,,,0.00,Acu-Link.com,2014-01-19 19:06:00,
2014-01-19 12:21:00,51.4,13.9,29.89,WSW,247,19.1,-999.0,22,-99.99,,,0.00,Acu-Link.com,2014-01-19 19:21:00,
2014-01-19 12:36:00,49.5,14.2,29.89,WSW,247,17.6,-999.0,24,-99.99,,,0.00,Acu-Link.com,2014-01-19 19:36:00,
2014-01-19 12:52:00,49.6,14.3,29.88,West,270,9.9,-999.0,24,-99.99,,,0.00,Acu-Link.com,2014-01-19 19:52:00,
2014-01-19 13:07:00,50.4,14.0,29.87,West,270,16.1,-999.0,23,-99.99,,,0.00,Acu-Link.com,2014-01-19 20:07:00,
2014-01-19 13:22:00,52.2,14.5,29.87,WSW,247,16.6,-999.0,22,-99.99,,,0.00,Acu-Link.com,2014-01-19 20:22:00,
2014-01-19 13:37:00,50.5,13.1,29.87,West,270,14.5,-999.0,22,-99.99,,,0.00,Acu-Link.com,2014-01-19 20:37:00,
2014-01-19 13:52:00,51.1,14.6,29.87,West,270,10.4,-999.0,23,-99.99,,,0.00,Acu-Link.com,2014-01-19 20:52:00,
2014-01-19 14:07:00,51.1,14.6,29.87,WSW,247,6.8,-999.0,23,-99.99,,,0.00,Acu-Link.com,2014-01-19 21:07:00,
2014-01-19 14:23:00,52.0,14.4,29.87,WSW,247,11.4,-999.0,22,-99.99,,,0.00,Acu-Link.com,2014-01-19 21:23:00,
2014-01-19 14:38:00,51.6,14.0,29.88,NW,315,9.4,-999.0,22,-99.99,,,0.00,Acu-Link.com,2014-01-19 21:38:00,
2014-01-19 14:53:00,51.1,14.6,29.88,West,270,9.4,-999.0,23,-99.99,,,0.00,Acu-Link.com,2014-01-19 21:53:00,
2014-01-19 15:08:00,51.3,13.8,29.89,West,270,11.4,-999.0,22,-99.99,,,0.00,Acu-Link.com,2014-01-19 22:08:00,
2014-01-19 15:23:00,51.3,13.8,29.89,West,270,10.9,-999.0,22,-99.99,,,0.00,Acu-Link.com,2014-01-19 22:23:00,
2014-01-19 15:38:00,50.5,13.1,29.89,WSW,247,9.4,-999.0,22,-99.99,,,0.00,Acu-Link.com,2014-01-19 22:38:00,
2014-01-19 15:53:00,49.8,13.5,29.89,WSW,247,17.1,-999.0,23,-99.99,,,0.00,Acu-Link.com,2014-01-19 22:53:00,
2014-01-19 16:08:00,49.5,13.3,29.89,WSW,247,8.9,-999.0,23,-99.99,,,0.00,Acu-Link.com,2014-01-19 23:08:00,
2014-01-19 16:23:00,48.4,13.3,29.89,West,270,8.9,-999.0,24,-99.99,,,0.00,Acu-Link.com,2014-01-19 23:23:00,
2014-01-19 16:39:00,48.4,13.3,29.89,West,270,15.0,-999.0,24,-99.99,,,0.00,Acu-Link.com,2014-01-19 23:39:00,
2014-01-19 16:54:00,45.1,12.3,29.89,West,270,8.9,-999.0,26,-99.99,,,0.00,Acu-Link.com,2014-01-19 23:54:00,
2014-01-19 17:09:00,44.2,12.4,29.89,West,270,6.3,-999.0,27,-99.99,,,0.00,Acu-Link.com,2014-01-20 00:09:00,
2014-01-19 17:24:00,43.9,12.1,29.89,West,270,6.3,-999.0,27,-99.99,,,0.00,Acu-Link.com,2014-01-20 00:24:00,
2014-01-19 17:39:00,43.5,11.8,29.89,WSW,247,7.8,-999.0,27,-99.99,,,0.00,Acu-Link.com,2014-01-20 00:39:00,
2014-01-19 17:54:00,43.0,10.5,29.90,West,270,9.9,-999.0,26,-99.99,,,0.00,Acu-Link.com,2014-01-20 00:54:00,
2014-01-19 18:10:00,42.6,10.1,29.89,South,180,9.4,-999.0,26,-99.99,,,0.00,Acu-Link.com,2014-01-20 01:10:00,
2014-01-19 18:25:00,42.4,9.1,29.87,SW,225,14.0,-999.0,25,-99.99,,,0.00,Acu-Link.com,2014-01-20 01:25:00,
2014-01-19 18:40:00,42.6,9.3,29.85,West,270,15.0,-999.0,25,-99.99,,,0.00,Acu-Link.com,2014-01-20 01:40:00,
2014-01-19 18:55:00,41.9,10.4,29.84,West,270,16.6,-999.0,27,-99.99,,,0.00,Acu-Link.com,2014-01-20 01:55:00,
2014-01-19 19:10:00,41.5,9.2,29.84,SW,225,25.3,-999.0,26,-99.99,,,0.00,Acu-Link.com,2014-01-20 02:10:00,
2014-01-19 19:25:00,41.5,8.3,29.84,West,270,16.1,-999.0,25,-99.99,,,0.00,Acu-Link.com,2014-01-20 02:25:00,
2014-01-19 19:41:00,40.6,7.6,29.86,West,270,13.0,-999.0,25,-99.99,,,0.00,Acu-Link.com,2014-01-20 02:41:00,
2014-01-19 19:56:00,41.5,4.5,29.85,West,270,14.5,-999.0,21,-99.99,,,0.00,Acu-Link.com,2014-01-20 02:56:00,
2014-01-19 20:11:00,41.5,3.5,29.85,West,270,10.4,-999.0,20,-99.99,,,0.00,Acu-Link.com,2014-01-20 03:11:00,
2014-01-19 20:26:00,44.2,0.9,29.85,West,270,16.6,-999.0,16,-99.99,,,0.00,Acu-Link.com,2014-01-20 03:26:00,
2014-01-19 20:41:00,44.2,2.2,29.84,WNW,292,16.6,-999.0,17,-99.99,,,0.00,Acu-Link.com,2014-01-20 03:41:00,
2014-01-19 20:56:00,43.9,3.2,29.84,WSW,247,22.2,-999.0,18,-99.99,,,0.00,Acu-Link.com,2014-01-20 03:56:00,
2014-01-19 21:12:00,41.7,7.6,29.84,West,270,22.7,-999.0,24,-99.99,,,0.00,Acu-Link.com,2014-01-20 04:12:00,
2014-01-19 21:27:00,41.7,8.5,29.84,West,270,22.7,-999.0,25,-99.99,,,0.00,Acu-Link.com,2014-01-20 04:27:00,
2014-01-19 21:42:00,41.2,8.1,29.86,West,270,19.1,-999.0,25,-99.99,,,0.00,Acu-Link.com,2014-01-20 04:42:00,
2014-01-19 21:57:00,41.0,7.9,29.86,West,270,18.1,-999.0,25,-99.99,,,0.00,Acu-Link.com,2014-01-20 04:57:00,
2014-01-19 22:12:00,41.0,7.0,29.86,SW,225,13.5,-999.0,24,-99.99,,,0.00,Acu-Link.com,2014-01-20 05:12:00,
2014-01-19 22:27:00,40.5,8.3,29.86,SW,225,20.2,-999.0,26,-99.99,,,0.00,Acu-Link.com,2014-01-20 05:27:00,
2014-01-19 22:43:00,40.6,7.6,29.86,SSW,202,10.4,-999.0,25,-99.99,,,0.00,Acu-Link.com,2014-01-20 05:43:00,
2014-01-19 22:58:00,40.3,7.3,29.86,SW,225,4.2,-999.0,25,-99.99,,,0.00,Acu-Link.com,2014-01-20 05:58:00,
2014-01-19 23:13:00,39.9,7.0,29.86,WNW,292,7.3,-999.0,25,-99.99,,,0.00,Acu-Link.com,2014-01-20 06:13:00,
2014-01-19 23:28:00,39.4,7.4,29.85,SW,225,8.3,-999.0,26,-99.99,,,0.00,Acu-Link.com,2014-01-20 06:28:00,
2014-01-19 23:43:00,39.0,7.1,29.85,SSW,202,3.7,-999.0,26,-99.99,,,0.00,Acu-Link.com,2014-01-20 06:43:00,
2014-01-19 23:58:00,37.9,6.1,29.86,East,90,4.2,-999.0,26,-99.99,,,0.00,Acu-Link.com,2014-01-20 06:58:00,